Weather History for KECP - January, 2013

Change the Weather History Date:

Saturday, January 12, 2013

  Actual Average Record
Temperature  
Mean Temperature 67 °F -  
Max Temperature 76 °F - 76 °F (2013)
Min Temperature 58 °F - 27 °F (2011)
Degree Days  
Heating Degree Days 0    
Cooling Degree Days 2    
Growing Degree Days 16 (Base 50)    
Moisture  
Dew Point 62 °F    
Average Humidity 82    
Maximum Humidity 100    
Minimum Humidity 64    
Precipitation  
Precipitation 0.00 in - 0.00 in (2015)
Month to date precipitation  
Year to date precipitation  
Sea Level Pressure  
Sea Level Pressure 30.13 in    
Wind  
Wind Speed 4 mph (SE)    
Max Wind Speed 18 mph    
Max Gust Speed 25 mph    
Visibility 5 miles    
Events Fog    
T = Trace of Precipitation, MM = Missing Value Source: NWS Daily Summary

Daily Weather History Graph

Daily Weather History Graph

Search for Another Location

Airport or City:

Trip Planner

Search our weather history database for the weather conditions in past years. The results will help you decide how hot, cold, wet, or windy it might be!

Date:

Astronomy

Jan. 12, 2013 Rise Set
Actual Time 7:40 AM EST 6:02 PM EST
Civil Twilight 7:14 AM EST 6:28 PM EST
Nautical Twilight 6:45 AM EST 6:58 PM EST
Astronomical Twilight 6:16 AM EST 7:27 PM EST
Moon 8:06 AM EST (1/12) 7:22 PM EST (1/12)
Length of Visible Light 11h 13m
Length of Day
10h 21m
New Moon, 1% of the Moon is Illuminated
Jan 12
New Moon
Jan 18
First Quarter
Jan 26
Full
Feb 3
Last Quarter
Feb 10
New

Hourly Weather History & Observations

Time (EST) Temp. Dew Point Humidity Pressure Visibility Wind Dir Wind Speed Gust Speed Precip Events Conditions
12:05 AM 62.6 °F 60.8 °F 94% 30.14 in 0.5 mi Calm Calm - N/A Fog Fog
12:18 AM 62.6 °F 60.8 °F 94% 30.14 in 1.5 mi Calm Calm - N/A   Mostly Cloudy
12:25 AM 62.6 °F 60.8 °F 94% 30.13 in 0.8 mi ENE 3.5 mph - N/A   Mist
12:53 AM 61.0 °F 59.0 °F 93% 30.17 in 0.2 mi Calm Calm - N/A Fog Fog
1:04 AM 60.8 °F 57.2 °F 88% 30.14 in 0.8 mi Calm Calm - N/A   Mist
1:12 AM 60.8 °F 59.0 °F 94% 30.14 in 0.2 mi Calm Calm - N/A Fog Fog
1:53 AM 59.0 °F 57.9 °F 96% 30.18 in 0.2 mi Calm Calm - N/A Fog Fog
2:14 AM 59.0 °F 57.2 °F 94% 30.14 in 0.2 mi Calm Calm - N/A Fog Fog
2:21 AM 60.8 °F 57.2 °F 88% 30.14 in 0.8 mi Calm Calm - N/A   Mist
2:28 AM 59.0 °F 57.2 °F 94% 30.14 in 0.8 mi East 3.5 mph - N/A   Mist
2:53 AM 60.1 °F 59.0 °F 96% 30.17 in 0.5 mi East 5.8 mph - N/A Fog Fog
3:06 AM 60.8 °F 60.8 °F 100% 30.13 in 0.5 mi East 3.5 mph - N/A Fog Fog
3:32 AM 60.8 °F 59.0 °F 94% 30.12 in 0.2 mi Calm Calm - N/A Fog Fog
3:53 AM 60.1 °F 59.0 °F 96% 30.16 in 0.2 mi Calm Calm - N/A Fog Fog
4:11 AM 59.0 °F 57.2 °F 94% 30.11 in 0.5 mi Calm Calm - N/A Fog Fog
4:53 AM 57.9 °F 57.0 °F 97% 30.14 in 0.8 mi East 4.6 mph - N/A   Mist
5:34 AM 60.8 °F 59.0 °F 94% 30.10 in 0.2 mi ESE 3.5 mph - N/A Fog Fog
5:53 AM 61.0 °F 60.1 °F 97% 30.14 in 0.2 mi East 5.8 mph - N/A Fog Fog
6:08 AM 60.8 °F 60.8 °F 100% 30.10 in 0.5 mi East 5.8 mph - N/A Fog Fog
6:37 AM 62.6 °F 60.8 °F 94% 30.11 in 3.0 mi ESE 5.8 mph - N/A   Overcast
6:50 AM 62.6 °F 60.8 °F 94% 30.11 in 2.0 mi East 4.6 mph - N/A   Overcast
6:53 AM 62.1 °F 61.0 °F 96% 30.15 in 2.0 mi East 3.5 mph - N/A   Overcast
7:13 AM 62.6 °F 60.8 °F 94% 30.12 in 4.0 mi Calm Calm - N/A   Scattered Clouds
7:53 AM 61.0 °F 59.0 °F 93% 30.16 in 6.0 mi Calm Calm - N/A   Clear
8:53 AM 63.0 °F 62.1 °F 97% 30.17 in 5.0 mi Calm Calm - N/A   Clear
9:53 AM 68.0 °F 62.1 °F 81% 30.19 in 10.0 mi SE 3.5 mph - N/A   Clear
10:53 AM 73.0 °F 62.1 °F 68% 30.19 in 10.0 mi SE 11.5 mph - N/A   Clear
11:53 AM 73.9 °F 63.0 °F 68% 30.17 in 10.0 mi SE 15.0 mph 24.2 mph N/A   Clear
12:53 PM 75.9 °F 63.0 °F 64% 30.16 in 10.0 mi SE 15.0 mph 24.2 mph N/A   Scattered Clouds
1:53 PM 75.0 °F 63.0 °F 66% 30.14 in 10.0 mi SE 16.1 mph 24.2 mph N/A   Scattered Clouds
2:53 PM 75.0 °F 64.9 °F 71% 30.13 in 10.0 mi SE 12.7 mph 21.9 mph N/A   Scattered Clouds
3:53 PM 73.9 °F 64.9 °F 73% 30.12 in 10.0 mi SE 11.5 mph - N/A   Scattered Clouds
4:53 PM 72.0 °F 64.0 °F 76% 30.11 in 10.0 mi SSE 8.1 mph - N/A   Partly Cloudy
5:39 PM 71.6 °F 64.4 °F 78% 30.07 in 8.0 mi SSE 13.8 mph - N/A   Mostly Cloudy
5:47 PM 69.8 °F 64.4 °F 83% 30.08 in 8.0 mi SSE 17.3 mph 24.2 mph N/A   Mostly Cloudy
5:53 PM 68.0 °F 64.9 °F 90% 30.11 in 8.0 mi SSE 11.5 mph 24.2 mph N/A   Overcast
6:20 PM 68.0 °F 64.4 °F 88% 30.07 in 3.0 mi SSE 11.5 mph - N/A   Overcast
6:53 PM 68.0 °F 64.9 °F 90% 30.11 in 10.0 mi SE 6.9 mph - N/A   Overcast
7:06 PM 69.8 °F 64.4 °F 83% 30.07 in 10.0 mi SE 10.4 mph - N/A   Overcast
7:53 PM 69.1 °F 64.9 °F 87% 30.10 in 10.0 mi SE 8.1 mph - N/A   Mostly Cloudy
8:53 PM 68.0 °F 64.9 °F 90% 30.09 in 7.0 mi ESE 9.2 mph - N/A   Overcast
9:53 PM 69.1 °F 66.0 °F 90% 30.10 in 10.0 mi SE 6.9 mph - N/A   Overcast
10:53 PM 69.1 °F 66.0 °F 90% 30.11 in 9.0 mi SE 10.4 mph - N/A   Overcast
11:42 PM 69.8 °F 66.2 °F 88% 30.05 in 9.0 mi ESE 6.9 mph - N/A   Overcast
11:53 PM 68.0 °F 66.0 °F 93% 30.09 in 9.0 mi ESE 5.8 mph - N/A   Overcast